Simultaneous Nadir Overpasses (SNOs) Predictions

Prediction of SNOs between GOES-17 and LANDSAT-8 Satellite Orbit:

Table of predicted SNOs for the next 14.0 days since TLE Epoch: 7/30/2022
Index Date Time (GOES-17) GOES-17 Lat,Lon LANDSAT-8 Lat,Lon Distance(km) Time Diff (sec)
1 07/31/2022 07:19:55 0.02,-137.30 0.17,-136.51 89.58 80
2 07/31/2022 19:38:31 -0.03,-137.30 0.92,-141.67 496.82 80
3 08/02/2022 07:07:46 0.02,-137.30 0.81,-133.55 425.64 80
4 08/02/2022 19:26:21 -0.03,-137.30 0.28,-138.71 160.83 80
5 08/04/2022 19:16:51 -0.03,-137.29 -0.37,-135.76 174.56 80
6 08/05/2022 07:35:35 0.03,-137.29 -0.77,-140.95 416.22 80
7 08/07/2022 07:23:25 0.02,-137.27 -0.12,-138.00 82.06 80
8 08/09/2022 07:13:54 0.02,-137.25 0.48,-135.03 251.06 80
9 08/09/2022 19:32:30 -0.02,-137.24 0.61,-140.19 336.30 80
10 08/11/2022 19:20:20 -0.03,-137.20 -0.05,-137.25 5.32 80
